China Lake, CA

11:36 PM PST on February 20, 2018 (GMT -0800)
China Lake NAWS

Weather History for KNID - October, 2011

Change the Weather History Date:

Wednesday, October 5, 2011

  Actual Average Record
Temperature  
Mean Temperature 58 °F -  
Max Temperature 64 °F 85 °F 95 °F (2014)
Min Temperature 54 °F 56 °F 42 °F (2017)
Degree Days  
Heating Degree Days 6    
Growing Degree Days 8 (Base 50)    
Moisture  
Dew Point 40 °F    
Average Humidity 52    
Maximum Humidity 72    
Minimum Humidity 29    
Precipitation  
Precipitation 0.01 in - - ()
Sea Level Pressure  
Sea Level Pressure 29.68 in    
Wind  
Wind Speed 21 mph (SSW)    
Max Wind Speed 36 mph    
Max Gust Speed 45 mph    
Visibility 10 miles    
Events Rain    
Averages and records for this station are not official NWS values.
T = Trace of Precipitation, MM = Missing Value Source: NWS Daily Summary

Daily Weather History Graph

Daily Weather History Graph

Search for Another Location

Airport or City:

Trip Planner

Search our weather history database for the weather conditions in past years. The results will help you decide how hot, cold, wet, or windy it might be!

Date:

Astronomy

Oct. 05, 2011 Rise Set
Actual Time 6:48 AM PDT 6:29 PM PDT
Civil Twilight 6:23 AM PDT 6:54 PM PDT
Nautical Twilight 5:53 AM PDT 7:24 PM PDT
Astronomical Twilight 5:24 AM PDT 7:53 PM PDT
Moon 3:01 PM PDT (10/5) 12:51 AM PDT (10/5)
Length of Visible Light 12h 31m
Length of Day
11h 40m
Waxing Gibbous, 67% of the Moon is Illuminated
Oct 5
Waxing Gibbous
Oct 11
Full
Oct 19
Last Quarter
Oct 26
New
Nov 2
First Quarter

Hourly Weather History & Observations

Time (PDT) Temp. Dew Point Humidity Pressure Visibility Wind Dir Wind Speed Gust Speed Precip Events Conditions
12:56 AM 63.0 °F 39.9 °F 43% 29.73 in 10.0 mi SSW 25.3 mph 38.0 mph N/A   Clear
1:56 AM 62.1 °F 41.0 °F 46% 29.73 in 10.0 mi South 9.2 mph 16.1 mph N/A   Clear
2:56 AM 59.0 °F 45.0 °F 60% 29.69 in 10.0 mi South 31.1 mph 36.8 mph N/A   Clear
3:56 AM 57.9 °F 44.1 °F 60% 29.71 in 10.0 mi SE 13.8 mph 19.6 mph N/A   Partly Cloudy
4:56 AM 57.0 °F 43.0 °F 59% 29.69 in 10.0 mi South 18.4 mph 28.8 mph N/A   Clear
5:56 AM 55.9 °F 45.0 °F 67% 29.67 in 10.0 mi South 25.3 mph 34.5 mph N/A   Mostly Cloudy
6:56 AM 55.0 °F 45.0 °F 69% 29.69 in 10.0 mi South 24.2 mph 34.5 mph N/A   Overcast
7:56 AM 55.9 °F 45.0 °F 67% 29.69 in 10.0 mi South 24.2 mph 35.7 mph 0.00 in   Overcast
8:56 AM 59.0 °F 46.0 °F 62% 29.68 in 10.0 mi South 28.8 mph 36.8 mph 0.00 in Rain Light Rain
9:56 AM 61.0 °F 48.9 °F 64% 29.68 in 10.0 mi South 33.4 mph 44.9 mph 0.00 in Rain Light Rain
10:56 AM 63.0 °F 48.0 °F 58% 29.68 in 10.0 mi South 35.7 mph 43.7 mph 0.00 in   Overcast
11:56 AM 60.1 °F 51.1 °F 72% 29.66 in 9.0 mi South 28.8 mph 43.7 mph 0.00 in Rain Light Rain
12:56 PM 62.1 °F 53.1 °F 72% 29.66 in 10.0 mi South 23.0 mph 33.4 mph 0.00 in Rain Light Rain
1:56 PM 59.0 °F 46.0 °F 62% 29.69 in 10.0 mi SSW 12.7 mph - 0.01 in Rain Light Rain
2:56 PM 62.1 °F 39.0 °F 43% 29.67 in 10.0 mi SSW 15.0 mph 19.6 mph 0.00 in   Mostly Cloudy
3:56 PM 63.0 °F 34.0 °F 34% 29.64 in 10.0 mi SW 10.4 mph 19.6 mph N/A   Scattered Clouds
4:56 PM 63.0 °F 30.9 °F 30% 29.63 in 10.0 mi West 25.3 mph 31.1 mph N/A   Scattered Clouds
5:56 PM 60.1 °F 33.1 °F 36% 29.65 in 10.0 mi WSW 24.2 mph 31.1 mph N/A   Scattered Clouds
6:56 PM 54.0 °F 36.0 °F 51% 29.67 in 10.0 mi SW 19.6 mph 27.6 mph N/A   Partly Cloudy
7:56 PM 54.0 °F 33.1 °F 45% 29.70 in 10.0 mi South 6.9 mph 20.7 mph N/A   Clear
8:56 PM 54.0 °F 28.9 °F 38% 29.66 in 10.0 mi SSW 18.4 mph 25.3 mph N/A   Clear
9:56 PM 55.9 °F 24.1 °F 29% 29.67 in 10.0 mi WNW 9.2 mph 25.3 mph N/A   Clear
10:56 PM 55.0 °F 26.1 °F 33% 29.68 in 10.0 mi SSW 8.1 mph 19.6 mph N/A   Clear
11:56 PM 54.0 °F 28.0 °F 37% 29.68 in 10.0 mi West 16.1 mph - N/A   Clear